• In Netherlands
  • List of Countries
  • For 7 days
  • Water Temperature
  • Satellite Maps
  • Weather Map
  • Weather Widgets
  • user-avatar
    Login

    Hourly Weather Lezhe

    Today, 25 March, Saturday

    Time Temperature Precipitation Wind Pressure Humidity
    00:00 +14°C° 0 mm 1 mps 740 mmHg 67%
    01:00 +14°C° 0 mm 1 mps 740 mmHg 67%
    02:00 +14°C° 0 mm 1 mps 740 mmHg 68%
    03:00 +13°C° 0 mm 1 mps 740 mmHg 70%
    04:00 +13°C° 0 mm 1 mps 740 mmHg 71%
    05:00 +14°C° 0 mm 1 mps 740 mmHg 71%
    06:00 +15°C° 0 mm 1 mps 740 mmHg 71%
    07:00 +15°C° 0 mm 1 mps 741 mmHg 71%
    08:00 +19°C° 0 mm 1 mps 741 mmHg 65%
    09:00 +21°C° 0 mm 1 mps 741 mmHg 58%
    10:00 +23°C° 0 mm 1 mps 741 mmHg 51%
    11:00 +23°C° 0.1 mm 1 mps 741 mmHg 50%
    12:00 +24°C° 0.1 mm 2 mps 740 mmHg 48%
    13:00 +24°C° 0.1 mm 2 mps 740 mmHg 46%
    14:00 +23°C° 0.1 mm 2 mps 740 mmHg 49%
    15:00 +23°C° 0.1 mm 2 mps 739 mmHg 52%
    16:00 +21°C° 0.1 mm 2 mps 739 mmHg 54%
    17:00 +19°C° 0 mm 2 mps 739 mmHg 64%
    18:00 +16°C° 0 mm 1 mps 739 mmHg 75%
    19:00 +14°C° 0 mm 1 mps 739 mmHg 85%
    20:00 +13°C° 0 mm 1 mps 739 mmHg 86%
    21:00 +13°C° 0 mm 1 mps 739 mmHg 88%
    22:00 +12°C° 0 mm 1 mps 739 mmHg 89%
    23:00 +12°C° 0 mm 1 mps 739 mmHg 90%

    Tomorrow, 26 March, Sunday

    Time Temperature Precipitation Wind Pressure Humidity
    00:00 +12°C° 0 mm 1 mps 739 mmHg 91%
    01:00 +11°C° 0 mm 1 mps 738 mmHg 91%
    02:00 +11°C° 0 mm 1 mps 738 mmHg 91%
    03:00 +11°C° 0 mm 1 mps 737 mmHg 91%
    04:00 +10°C° 0 mm 1 mps 737 mmHg 91%
    05:00 +11°C° 0 mm 1 mps 737 mmHg 88%
    06:00 +12°C° 0 mm 1 mps 737 mmHg 85%
    07:00 +13°C° 0 mm 2 mps 737 mmHg 83%
    08:00 +15°C° 0 mm 2 mps 737 mmHg 76%
    09:00 +16°C° 0 mm 2 mps 736 mmHg 69%
    10:00 +18°C° 0 mm 3 mps 736 mmHg 63%
    11:00 +18°C° 0.2 mm 3 mps 736 mmHg 64%
    12:00 +18°C° 0.2 mm 3 mps 736 mmHg 66%
    13:00 +18°C° 0.2 mm 3 mps 735 mmHg 68%
    14:00 +17°C° 0.4 mm 3 mps 735 mmHg 70%
    15:00 +17°C° 0.4 mm 3 mps 735 mmHg 72%
    16:00 +16°C° 0.4 mm 3 mps 735 mmHg 74%
    17:00 +14°C° 1 mm 3 mps 736 mmHg 81%
    18:00 +13°C° 1 mm 2 mps 736 mmHg 87%
    19:00 +12°C° 1 mm 2 mps 736 mmHg 93%
    20:00 +10°C° 0.7 mm 3 mps 737 mmHg 91%
    21:00 +10°C° 0.7 mm 3 mps 737 mmHg 89%
    22:00 +9°C° 0.7 mm 3 mps 738 mmHg 87%
    23:00 +7°C° 0.1 mm 4 mps 738 mmHg 86%

    Day after tomorrow, 27 March, Monday

    Time Temperature Precipitation Wind Pressure Humidity
    00:00 +7°C° 0.1 mm 4 mps 738 mmHg 84%
    01:00 +6°C° 0.1 mm 5 mps 738 mmHg 83%
    02:00 +5°C° 0.1 mm 5 mps 738 mmHg 82%
    03:00 +5°C° 0.1 mm 5 mps 738 mmHg 80%
    04:00 +3°C° 0.1 mm 5 mps 738 mmHg 79%
    05:00 +5°C° 0 mm 5 mps 738 mmHg 77%
    06:00 +5°C° 0 mm 5 mps 738 mmHg 75%
    07:00 +5°C° 0 mm 5 mps 738 mmHg 73%
    08:00 +6°C° 0.1 mm 5 mps 738 mmHg 72%
    09:00 +7°C° 0.1 mm 5 mps 739 mmHg 70%
    10:00 +8°C° 0.1 mm 5 mps 739 mmHg 68%
    11:00 +8°C° 0.1 mm 5 mps 739 mmHg 65%
    12:00 +9°C° 0.1 mm 5 mps 739 mmHg 63%
    13:00 +10°C° 0.1 mm 5 mps 739 mmHg 61%
    14:00 +10°C° 0.1 mm 5 mps 739 mmHg 62%
    15:00 +10°C° 0.1 mm 5 mps 739 mmHg 62%
    16:00 +10°C° 0.1 mm 5 mps 739 mmHg 62%
    17:00 +9°C° 0 mm 5 mps 739 mmHg 67%
    18:00 +7°C° 0 mm 4 mps 739 mmHg 72%
    19:00 +6°C° 0 mm 4 mps 740 mmHg 77%
    20:00 +6°C° 0 mm 4 mps 740 mmHg 78%
    21:00 +6°C° 0 mm 4 mps 740 mmHg 78%
    22:00 +5°C° 0 mm 4 mps 741 mmHg 79%
    23:00 +5°C° 0 mm 4 mps 741 mmHg 79%

    28 March, Tuesday

    Time Temperature Precipitation Wind Pressure Humidity
    00:00 +5°C° 0 mm 4 mps 741 mmHg 78%
    01:00 +5°C° 0 mm 4 mps 741 mmHg 78%
    02:00 +5°C° 0 mm 4 mps 741 mmHg 78%
    03:00 +4°C° 0 mm 4 mps 741 mmHg 78%
    04:00 +4°C° 0 mm 4 mps 741 mmHg 79%
    05:00 +5°C° 0 mm 4 mps 742 mmHg 77%
    06:00 +5°C° 0 mm 4 mps 742 mmHg 75%
    07:00 +6°C° 0 mm 4 mps 742 mmHg 73%
    08:00 +8°C° 0 mm 4 mps 742 mmHg 67%
    09:00 +11°C° 0 mm 3 mps 742 mmHg 61%
    10:00 +13°C° 0 mm 3 mps 742 mmHg 55%
    11:00 +14°C° 0 mm 3 mps 742 mmHg 53%
    12:00 +14°C° 0 mm 3 mps 742 mmHg 51%
    13:00 +16°C° 0 mm 3 mps 741 mmHg 49%
    14:00 +16°C° 0 mm 3 mps 741 mmHg 50%
    15:00 +15°C° 0 mm 4 mps 741 mmHg 50%
    16:00 +15°C° 0 mm 4 mps 741 mmHg 50%
    17:00 +13°C° 0 mm 4 mps 741 mmHg 56%
    18:00 +11°C° 0 mm 3 mps 741 mmHg 62%
    19:00 +9°C° 0 mm 3 mps 742 mmHg 69%
    20:00 +8°C° 0 mm 3 mps 742 mmHg 70%
    21:00 +8°C° 0 mm 3 mps 742 mmHg 71%
    22:00 +7°C° 0 mm 3 mps 743 mmHg 73%
    23:00 +7°C° 0 mm 3 mps 743 mmHg 73%

    29 March, Wednesday

    Time Temperature Precipitation Wind Pressure Humidity
    00:00 +7°C° 0 mm 3 mps 743 mmHg 74%
    01:00 +7°C° 0 mm 3 mps 743 mmHg 74%
    02:00 +5°C° 0 mm 3 mps 742 mmHg 74%
    03:00 +5°C° 0 mm 3 mps 742 mmHg 75%
    04:00 +5°C° 0 mm 3 mps 742 mmHg 75%
    05:00 +7°C° 0 mm 3 mps 742 mmHg 72%
    06:00 +8°C° 0 mm 3 mps 742 mmHg 70%
    07:00 +9°C° 0 mm 3 mps 742 mmHg 67%
    08:00 +12°C° 0 mm 2 mps 742 mmHg 59%
    09:00 +15°C° 0 mm 2 mps 742 mmHg 51%
    10:00 +17°C° 0 mm 2 mps 742 mmHg 43%
    11:00 +18°C° 0 mm 2 mps 742 mmHg 40%
    12:00 +19°C° 0 mm 2 mps 741 mmHg 38%
    13:00 +20°C° 0 mm 2 mps 741 mmHg 35%
    14:00 +20°C° 0 mm 3 mps 740 mmHg 38%
    15:00 +19°C° 0 mm 3 mps 740 mmHg 41%
    16:00 +19°C° 0 mm 3 mps 740 mmHg 43%
    17:00 +16°C° 0 mm 3 mps 740 mmHg 51%
    18:00 +13°C° 0 mm 3 mps 740 mmHg 58%
    19:00 +10°C° 0 mm 3 mps 740 mmHg 66%
    20:00 +10°C° 0 mm 3 mps 740 mmHg 65%
    21:00 +10°C° 0 mm 3 mps 741 mmHg 65%
    22:00 +9°C° 0 mm 2 mps 741 mmHg 64%
    23:00 +9°C° 0 mm 2 mps 741 mmHg 65%

    30 March, Thursday

    Time Temperature Precipitation Wind Pressure Humidity
    00:00 +9°C° 0 mm 2 mps 741 mmHg 66%
    01:00 +8°C° 0 mm 2 mps 741 mmHg 66%
    02:00 +8°C° 0 mm 2 mps 741 mmHg 67%
    03:00 +8°C° 0 mm 2 mps 741 mmHg 68%
    04:00 +8°C° 0 mm 2 mps 741 mmHg 69%
    05:00 +9°C° 0 mm 2 mps 741 mmHg 68%
    06:00 +10°C° 0 mm 2 mps 741 mmHg 66%
    07:00 +12°C° 0 mm 2 mps 741 mmHg 65%
    08:00 +14°C° 0 mm 2 mps 741 mmHg 58%
    09:00 +16°C° 0 mm 2 mps 741 mmHg 51%
    10:00 +18°C° 0 mm 2 mps 741 mmHg 44%
    11:00 +19°C° 0 mm 2 mps 741 mmHg 42%
    12:00 +20°C° 0 mm 3 mps 741 mmHg 40%
    13:00 +21°C° 0 mm 3 mps 740 mmHg 38%
    14:00 +20°C° 0 mm 3 mps 740 mmHg 40%
    15:00 +20°C° 0 mm 4 mps 740 mmHg 42%
    16:00 +20°C° 0 mm 4 mps 740 mmHg 44%
    17:00 +18°C° 0 mm 4 mps 740 mmHg 52%
    18:00 +14°C° 0 mm 3 mps 740 mmHg 59%
    19:00 +12°C° 0 mm 3 mps 741 mmHg 67%
    20:00 +12°C° 0 mm 3 mps 741 mmHg 68%
    21:00 +11°C° 0 mm 3 mps 741 mmHg 68%
    22:00 +11°C° 0 mm 3 mps 742 mmHg 69%
    23:00 +11°C° 0 mm 3 mps 742 mmHg 70%
    Show more